| time (UTC) | temp F | wind direction | speed MPH | gust MPH | rain 1hr in | rain 24hr in | rain mn in | humidity % | barometer mb |
| 20260510172207 | 68 | 223 | 2.0 | 6.0 | 0.00 | 0.00 | 0.63 | 83 | 1008.4 |
| 20260510162202 | 64 | 219 | 1.0 | 5.0 | 0.00 | 0.00 | 0.63 | 88 | 1009.1 |
| 20260510155200 | 64 | 179 | 1.0 | 4.0 | 0.00 | 0.00 | 0.63 | 97 | 1009.8 |
| 20260510152157 | 62 | 187 | 1.0 | 4.0 | 0.00 | 0.00 | 0.63 | 99 | 1010.1 |
| 20260510142148 | 56 | 202 | 1.0 | 4.0 | 0.00 | 0.00 | 0.63 | 99 | 1010.4 |
| 20260510135147 | 54 | 219 | 1.0 | 3.0 | 0.00 | 0.00 | 0.63 | 99 | 1010.8 |
| 20260510132141 | 52 | 225 | 1.0 | 2.0 | 0.00 | 0.00 | 0.63 | 99 | 1010.8 |
| 20260510085533 | 49 | 221 | 1.0 | 3.0 | 0.00 | 0.00 | 0.63 | 99 | 1010.1 |
| 20260510085119 | 49 | 221 | 1.0 | 3.0 | 0.00 | 0.00 | 0.63 | 99 | 1010.1 |
| 20260510075206 | 49 | 255 | 1.0 | 3.0 | 0.00 | 0.00 | 0.63 | 99 | 1009.8 |
| 20260510075113 | 49 | 255 | 1.0 | 3.0 | 0.00 | 0.00 | 0.63 | 99 | 1009.8 |
| 20260510072110 | 49 | 225 | 0.0 | 2.0 | 0.00 | 0.00 | 0.63 | 99 | 1009.4 |
| 20260510065111 | 50 | 240 | 1.0 | 3.0 | 0.00 | 0.00 | 0.63 | 99 | 1009.4 |
| 20260510062103 | 50 | 247 | 1.0 | 4.0 | 0.00 | 0.00 | 0.63 | 99 | 1009.1 |
| 20260510055058 | 50 | 237 | 1.0 | 4.0 | 0.00 | 0.00 | 0.63 | 99 | 1009.1 |
| 20260510052053 | 50 | 230 | 1.0 | 2.0 | 0.00 | 0.00 | 0.63 | 99 | 1009.4 |
| 20260510045049 | 50 | 223 | 0.0 | 2.0 | 0.00 | 0.00 | 0.63 | 99 | 1009.4 |
| 20260510042045 | 50 | 220 | 0.0 | 2.0 | 0.00 | 0.00 | 0.63 | 99 | 1009.1 |
| 20260510035042 | 50 | 250 | 0.0 | 2.0 | 0.00 | 0.63 | 0.63 | 99 | 1009.1 |
| 20260510025040 | 50 | 230 | 1.0 | 2.0 | 0.00 | 0.63 | 0.63 | 99 | 1009.4 |
| 20260510015033 | 51 | 267 | 0.0 | 2.0 | 0.00 | 0.63 | 0.63 | 99 | 1009.1 |
| 20260510012028 | 51 | 273 | 0.0 | 2.0 | 0.00 | 0.63 | 0.63 | 99 | 1009.1 |
| 20260510005026 | 51 | 278 | 0.0 | 2.0 | 0.00 | 0.63 | 0.63 | 99 | 1008.4 |
| 20260510002026 | 51 | 289 | 0.0 | 2.0 | 0.00 | 0.63 | 0.63 | 99 | 1008.4 |
| 20260509225014 | 52 | 249 | 0.0 | 2.0 | 0.00 | 0.62 | 0.62 | 99 | 1009.1 |
| 20260509215008 | 52 | 219 | 1.0 | 2.0 | 0.00 | 0.55 | 0.55 | 99 | 1009.1 |
| 20260509212007 | 52 | 230 | 0.0 | 2.0 | 0.00 | 0.53 | 0.53 | 99 | 1009.1 |
| 20260509205001 | 52 | 228 | 1.0 | 3.0 | 0.00 | 0.52 | 0.52 | 98 | 1009.1 |
| 20260509201957 | 52 | 223 | 0.0 | 2.0 | 0.00 | 0.45 | 0.45 | 98 | 1009.4 |
| 20260509194956 | 52 | 269 | 0.0 | 4.0 | 0.00 | 0.40 | 0.40 | 97 | 1009.4 |
| 20260509184952 | 54 | 265 | 0.0 | 2.0 | 0.00 | 0.06 | 0.06 | 86 | 1008.8 |
| 20260509181946 | 55 | 255 | 0.0 | 3.0 | 0.00 | 0.06 | 0.06 | 85 | 1009.1 |